{"data":{"norad_id":82739,"epoch":"2026-09-17T16:58:59.767680Z","epoch_age_seconds":259386,"freshness":"STALE","line1":"1 82739U          26260.70763620  .00001315  00000+0  11063-2 0  9998","line2":"2 82739  99.1118  52.9389 0168815 265.2425 107.0760 13.83440111644675","mean_motion":13.83440111,"eccentricity":0.0168815,"inclination_deg":99.1118,"raan_deg":52.9389,"arg_perigee_deg":265.2425,"mean_anomaly_deg":107.076,"bstar":0.0011063,"rev_number":64467,"period_min":104.0883511003,"perigee_km":827.97156921757,"apogee_km":1075.4492065751,"semimajor_km":7329.8473878963,"source":"CELESTRAK","updated_at":"2026-09-20T09:00:32.439017Z"}}